Location: ???????
(55.5917°N, 37.3214°E)
Time: 17:56:15
(UTC+00:00)

Cosmos 2016 Rocket - Pass Details

Date: 14 July 2020
Orbit: 948 x 999 km, 83.0° (Epoch: 07 August)

Event Time Altitude Azimuth Distance (km) Brightness Sun altitude
Exits shadow 00:09:03 - 209° (SSW) 2,929 5.8 -6.3°
Reaches altitude 10° 00:09:42 10° 210° (SSW) 2,690 5.6 -6.2°
Maximum altitude 00:15:44 55° 288° (WNW) 1,154 4.3 -5.7°
Drops below altitude 10° 00:21:54 10° 6° (N) 2,742 7.4 -5.2°
Sets 00:24:31 0° 11° (NNE) 3,702 8.3 -5.0°
